Location: Newark
(42.9260°N, 89.3850°W)
Time: 04:08:32
(UTC+00:00)

STARLINK 1048 - Pass Details

Date: 11 December 2019
Orbit: 348 x 351 km, 53.0° (Epoch: 27 January)

Event Time Altitude Azimuth Distance (km) Brightness Sun altitude
Exits shadow 11:19:10 41° 143° (SE) 520 3.8 -21.0°
Drops below altitude 10° 11:21:13 10° 133° (SE) 1,306 6.4 -20.6°
Sets 11:23:13 0° 131° (SE) 2,144 7.7 -20.3°
